Weather History for KHEF - November, 2011

Change the Weather History Date:

Monday, November 21, 2011

  Actual Average Record
Temperature  
Mean Temperature 58 °F -  
Max Temperature 66 °F 53 °F 75 °F (2007)
Min Temperature 51 °F 31 °F 17 °F (2000)
Degree Days  
Heating Degree Days 6    
Growing Degree Days 8 (Base 50)    
Moisture  
Dew Point 52 °F    
Average Humidity 84    
Maximum Humidity 94    
Minimum Humidity 68    
Precipitation  
Precipitation 0.00 in - - ()
Sea Level Pressure  
Sea Level Pressure 30.21 in    
Wind  
Wind Speed 5 mph (North)    
Max Wind Speed 10 mph    
Max Gust Speed -    
Visibility 6 miles    
Events      
Averages and records for this station are not official NWS values.
T = Trace of Precipitation, MM = Missing Value Source: NWS Daily Summary

Daily Weather History Graph

Daily Weather History Graph

Search for Another Location

Airport or City:

Trip Planner

Search our weather history database for the weather conditions in past years. The results will help you decide how hot, cold, wet, or windy it might be!

Date:

Astronomy

Nov. 21, 2011 Rise Set
Actual Time 6:58 AM EST 4:52 PM EST
Civil Twilight 6:29 AM EST 5:21 PM EST
Nautical Twilight 5:57 AM EST 5:54 PM EST
Astronomical Twilight 5:25 AM EST 6:25 PM EST
Moon 2:36 AM EST (11/21) 2:12 PM EST (11/21)
Length of Visible Light 10h 51m
Length of Day
9h 54m
Waning Crescent, 18% of the Moon is Illuminated
Nov 21
Waning Crescent
Nov 25
New
Dec 2
First Quarter
Dec 10
Full
Dec 17
Last Quarter

Hourly Weather History & Observations

Time (EST) Temp. Dew Point Humidity Pressure Visibility Wind Dir Wind Speed Gust Speed Precip Events Conditions
12:15 AM 57.2 °F 51.8 °F 82% 30.14 in 10.0 mi North 3.5 mph - N/A   Overcast
12:35 AM 57.2 °F 51.8 °F 82% 30.14 in 10.0 mi NNW 3.5 mph - N/A   Overcast
12:55 AM 57.2 °F 51.8 °F 82% 30.14 in 10.0 mi NNW 5.8 mph - N/A   Overcast
1:15 AM 57.2 °F 51.8 °F 82% 30.15 in 8.0 mi NNW 4.6 mph - N/A   Overcast
1:35 AM 55.4 °F 51.8 °F 88% 30.15 in 4.0 mi North 8.1 mph - N/A   Overcast
1:55 AM 55.4 °F 51.8 °F 88% 30.14 in 4.0 mi North 9.2 mph - N/A   Overcast
2:15 AM 55.4 °F 53.6 °F 94% 30.15 in 4.0 mi North 6.9 mph - N/A   Overcast
2:35 AM 55.4 °F 53.6 °F 94% 30.15 in 5.0 mi NNE 3.5 mph - N/A   Overcast
2:55 AM 55.4 °F 53.6 °F 94% 30.15 in 5.0 mi North - - N/A   Overcast
3:35 AM 55.4 °F 53.6 °F 94% 30.13 in 5.0 mi Calm Calm - N/A   Overcast
3:55 AM 55.4 °F 51.8 °F 88% 30.15 in 3.0 mi WSW 4.6 mph - N/A   Overcast
4:15 AM 55.4 °F 53.6 °F 94% 30.15 in 4.0 mi Calm Calm - N/A   Overcast
4:35 AM 55.4 °F 51.8 °F 88% 30.15 in 2.5 mi SE 4.6 mph - N/A   Overcast
4:55 AM 55.4 °F 51.8 °F 88% 30.16 in 2.0 mi SSE 4.6 mph - N/A   Overcast
5:15 AM 55.4 °F 51.8 °F 88% 30.15 in 1.8 mi Calm Calm - N/A   Overcast
5:35 AM 55.4 °F 51.8 °F 88% 30.16 in 1.8 mi Calm Calm - N/A   Overcast
5:55 AM 55.4 °F 51.8 °F 88% 30.18 in 3.0 mi NNW 4.6 mph - N/A   Overcast
6:15 AM 55.4 °F 51.8 °F 88% 30.20 in 4.0 mi Calm Calm - N/A   Overcast
6:55 AM 55.4 °F 51.8 °F 88% 30.21 in 5.0 mi North 4.6 mph - N/A   Overcast
7:15 AM 55.4 °F 51.8 °F 88% 30.22 in 3.0 mi Calm Calm - N/A   Overcast
7:35 AM 55.4 °F 51.8 °F 88% 30.22 in 2.5 mi Calm Calm - N/A   Overcast
7:55 AM 55.4 °F 51.8 °F 88% 30.23 in 2.5 mi Calm Calm - N/A   Overcast
8:15 AM 55.4 °F 51.8 °F 88% 30.23 in 2.0 mi Calm Calm - N/A   Mostly Cloudy
8:35 AM 57.2 °F 53.6 °F 88% 30.24 in 3.0 mi Calm Calm - N/A   Clear
9:15 AM 59.0 °F 55.4 °F 88% 30.24 in 8.0 mi Calm Calm - N/A   Clear
9:35 AM 60.8 °F 55.4 °F 82% 30.25 in 10.0 mi Calm Calm - N/A   Clear
9:55 AM 62.6 °F 55.4 °F 77% 30.25 in 10.0 mi NNE 4.6 mph - N/A   Clear
10:15 AM 64.4 °F 55.4 °F 73% 30.25 in 10.0 mi North 4.6 mph - N/A   Clear
10:35 AM 64.4 °F 55.4 °F 73% 30.24 in 10.0 mi East 3.5 mph - N/A   Mostly Cloudy
10:55 AM 66.2 °F 55.4 °F 68% 30.24 in 10.0 mi Calm Calm - N/A   Mostly Cloudy
11:15 AM 64.4 °F 53.6 °F 68% 30.24 in 10.0 mi North 3.5 mph - N/A   Mostly Cloudy
11:35 AM 64.4 °F 55.4 °F 73% 30.23 in 10.0 mi NNW 6.9 mph - N/A   Mostly Cloudy
11:55 AM 62.6 °F 55.4 °F 77% 30.22 in 10.0 mi North 10.4 mph - N/A   Overcast
12:15 PM 62.6 °F 55.4 °F 77% 30.21 in 10.0 mi North 9.2 mph - N/A   Overcast
12:35 PM 60.8 °F 53.6 °F 77% 30.21 in 10.0 mi NNE 6.9 mph - N/A   Overcast
12:55 PM 60.8 °F 53.6 °F 77% 30.21 in 10.0 mi North 9.2 mph - N/A   Overcast
1:15 PM 59.0 °F 53.6 °F 82% 30.21 in 10.0 mi North 8.1 mph - N/A   Overcast
1:35 PM 59.0 °F 53.6 °F 82% 30.20 in 8.0 mi North 5.8 mph - N/A   Overcast
1:55 PM 59.0 °F 53.6 °F 82% 30.20 in 8.0 mi North 6.9 mph - N/A   Overcast
2:15 PM 57.2 °F 53.6 °F 88% 30.20 in 7.0 mi North 9.2 mph - N/A   Overcast
2:35 PM 57.2 °F 51.8 °F 82% 30.20 in 5.0 mi North 6.9 mph - N/A   Overcast
2:55 PM 57.2 °F 51.8 °F 82% 30.20 in 5.0 mi North 8.1 mph - N/A   Overcast
3:15 PM 57.2 °F 51.8 °F 82% 30.21 in 4.0 mi North 9.2 mph - N/A   Overcast
3:35 PM 55.4 °F 51.8 °F 88% 30.21 in 4.0 mi North 8.1 mph - N/A   Overcast
3:55 PM 55.4 °F 51.8 °F 88% 30.22 in 3.0 mi North 8.1 mph - N/A   Overcast
4:15 PM 55.4 °F 50.0 °F 82% 30.22 in 3.0 mi North 9.2 mph - N/A   Overcast
4:35 PM 55.4 °F 50.0 °F 82% 30.22 in 2.5 mi North 8.1 mph - N/A   Overcast
4:55 PM 53.6 °F 50.0 °F 88% 30.23 in 5.0 mi North 9.2 mph - N/A   Overcast
5:15 PM 53.6 °F 50.0 °F 88% 30.24 in 5.0 mi North 5.8 mph - N/A   Overcast
5:55 PM 53.6 °F 48.2 °F 82% 30.24 in 5.0 mi North 8.1 mph - N/A   Overcast
6:15 PM 53.6 °F 48.2 °F 82% 30.24 in 5.0 mi North 10.4 mph - N/A   Overcast
6:35 PM 51.8 °F 48.2 °F 88% 30.25 in 6.0 mi North 9.2 mph - N/A   Overcast
6:55 PM 51.8 °F 48.2 °F 88% 30.25 in 4.0 mi North 8.1 mph - N/A   Overcast
7:15 PM 51.8 °F 48.2 °F 88% 30.25 in 5.0 mi North 6.9 mph - N/A   Overcast
7:35 PM 51.8 °F 48.2 °F 88% 30.26 in 4.0 mi North 6.9 mph - N/A   Overcast
7:55 PM 51.8 °F 48.2 °F 88% 30.27 in 5.0 mi North 6.9 mph - N/A   Overcast
8:15 PM 51.8 °F 46.4 °F 82% 30.26 in 4.0 mi North 6.9 mph - N/A   Overcast
8:35 PM 51.8 °F 46.4 °F 82% 30.25 in 4.0 mi North 5.8 mph - N/A   Overcast
8:55 PM 51.8 °F 46.4 °F 82% 30.25 in 5.0 mi North 5.8 mph - N/A   Overcast
9:15 PM 51.8 °F 46.4 °F 82% 30.25 in 5.0 mi NNW 3.5 mph - N/A   Overcast
9:35 PM 51.8 °F 46.4 °F 82% 30.25 in 5.0 mi North 4.6 mph - N/A   Overcast
9:55 PM 50.0 °F 46.4 °F 87% 30.26 in 3.0 mi Calm Calm - N/A   Overcast
10:35 PM 50.0 °F 46.4 °F 87% 30.26 in 3.0 mi NNW 4.6 mph - N/A   Overcast
10:55 PM 50.0 °F 46.4 °F 87% 30.25 in 3.0 mi NNW 3.5 mph - N/A   Overcast
11:15 PM 50.0 °F 46.4 °F 87% 30.25 in 3.0 mi NNW 3.5 mph - N/A   Overcast
11:35 PM 51.8 °F 46.4 °F 82% 30.25 in 3.0 mi North 4.6 mph - N/A   Overcast
11:55 PM 50.0 °F 46.4 °F 87% 30.24 in 3.0 mi North 4.6 mph - N/A   Overcast